^^
Saratoga-Weather Station Historical Data
Daily Summary for January 6, 2020 Units:  Metric    English   Both
Daily Weekly Monthly Yearly Custom
  High: Low: Average:
Temperature: 20.3 °C 11.7 °C 16.6 °C
Dew Point: 17.2 °C 7.9 °C 9.7 °C
Humidity: 91% 46% 65%
Wind Speed: 33.8km/h 0km/h 8.3km/h
Wind Gust: 33.8km/h - -
Wind- - West
Pressure: 1021.3 hPa 1012.9 hPa -
Precipitation: 0.0 mm    
Historical Graphs
 
 
Tabular Data for January 6, 2020
Time Temperature Dew Point Pressure Wind Wind Speed Wind Gust Humidity Rainfall Rate (Hourly) solar
00:02 18.8 °C 17.1 °C 1012.9 hPa Calm   1.6 km/h 90% 0.0 mm 0 W/m2
00:07 18.7 °C 17 °C 1012.9 hPa WNW 1.4 km/h 1.6 km/h 90% 0.0 mm 0 W/m2
00:12 18.7 °C 17 °C 1012.9 hPa Calm   1.6 km/h 90% 0.0 mm 0 W/m2
00:17 18.6 °C 16.9 °C 1012.9 hPa WSW 4.7 km/h 6.4 km/h 90% 0.0 mm 0 W/m2
00:27 18.6 °C 17.1 °C 1012.9 hPa SW 4.7 km/h 6.4 km/h 91% 0.0 mm 0 W/m2
00:32 18.7 °C 17.2 °C 1012.9 hPa WSW 3.2 km/h 12.9 km/h 91% 0.0 mm 0 W/m2
00:37 18.8 °C 17.1 °C 1012.9 hPa NW 3.2 km/h 11.3 km/h 90% 0.0 mm 0 W/m2
00:42 18.8 °C 17.1 °C 1012.9 hPa West 4.7 km/h 11.3 km/h 90% 0.0 mm 0 W/m2
00:47 18.8 °C 17.1 °C 1012.9 hPa West 4.7 km/h 17.7 km/h 90% 0.0 mm 0 W/m2
00:52 18.8 °C 16.9 °C 1013.2 hPa West 11.1 km/h 11.3 km/h 89% 0.0 mm 0 W/m2
00:57 18.8 °C 16.8 °C 1012.9 hPa West 11.1 km/h 22.5 km/h 88% 0.0 mm 0 W/m2
01:02 18.8 °C 16.8 °C 1013.2 hPa West 4.7 km/h 9.7 km/h 88% 0.0 mm 0 W/m2
01:08 18.7 °C 16.5 °C 1013.2 hPa NNW 4.7 km/h 22.5 km/h 87% 0.0 mm 0 W/m2
01:13 18.7 °C 16.3 °C 1013.5 hPa West 11.1 km/h 14.5 km/h 86% 0.0 mm 0 W/m2
01:23 18.6 °C 15.8 °C 1013.5 hPa WNW 16.3 km/h 17.7 km/h 84% 0.0 mm 0 W/m2
01:28 18.6 °C 15.5 °C 1013.5 hPa SSW 4.7 km/h 12.9 km/h 82% 0.0 mm 0 W/m2
01:33 18.4 °C 15.1 °C 1013.5 hPa WNW 4.7 km/h 17.7 km/h 81% 0.0 mm 0 W/m2
01:38 18.3 °C 14.6 °C 1013.5 hPa NW 6.4 km/h 19.3 km/h 79% 0.0 mm 0 W/m2
01:43 18.2 °C 14.1 °C 1013.5 hPa WSW 14.3 km/h 17.7 km/h 77% 0.0 mm 0 W/m2
01:48 18.1 °C 14 °C 1013.9 hPa WSW 13 km/h 22.5 km/h 77% 0.0 mm 0 W/m2
01:53 17.9 °C 13.8 °C 1013.5 hPa West 9.7 km/h 14.5 km/h 77% 0.0 mm 0 W/m2
01:58 17.7 °C 13.2 °C 1013.5 hPa WNW 13 km/h 22.5 km/h 75% 0.0 mm 0 W/m2
02:03 17.7 °C 12.8 °C 1014.2 hPa WSW 33.8 km/h 33.8 km/h 73% 0.0 mm 0 W/m2
02:08 17.5 °C 12.4 °C 1013.9 hPa West 16.3 km/h 27.4 km/h 72% 0.0 mm 0 W/m2
02:13 17.4 °C 12.3 °C 1014.2 hPa West 17.7 km/h 33.8 km/h 72% 0.0 mm 0 W/m2
02:18 17.3 °C 12.2 °C 1013.9 hPa WSW 14.3 km/h 17.7 km/h 72% 0.0 mm 0 W/m2
02:23 17.2 °C 12.1 °C 1014.2 hPa WSW 7.9 km/h 19.3 km/h 72% 0.0 mm 0 W/m2
02:28 17.1 °C 12 °C 1014.2 hPa West 6.4 km/h 17.7 km/h 72% 0.0 mm 0 W/m2
02:33 16.9 °C 11.6 °C 1014.2 hPa WSW 17.7 km/h 27.4 km/h 71% 0.0 mm 0 W/m2
02:38 16.8 °C 11.3 °C 1014.2 hPa West 19.5 km/h 22.5 km/h 70% 0.0 mm 0 W/m2
02:44 16.7 °C 11.2 °C 1014.2 hPa WSW 13 km/h 14.5 km/h 70% 0.0 mm 0 W/m2
02:49 16.5 °C 11.2 °C 1014.6 hPa WNW 11.1 km/h 16.1 km/h 71% 0.0 mm 0 W/m2
02:59 16.2 °C 11.1 °C 1014.6 hPa WNW 13 km/h 27.4 km/h 72% 0.0 mm 0 W/m2
03:04 16 °C 11.2 °C 1014.6 hPa WNW 6.4 km/h 17.7 km/h 73% 0.0 mm 0 W/m2
03:09 15.8 °C 11.2 °C 1014.6 hPa WNW 13 km/h 27.4 km/h 74% 0.0 mm 0 W/m2
03:14 15.7 °C 10.9 °C 1014.6 hPa WNW 14.3 km/h 19.3 km/h 73% 0.0 mm 0 W/m2
03:19 15.5 °C 10.5 °C 1014.6 hPa WNW 13 km/h 17.7 km/h 72% 0.0 mm 0 W/m2
03:24 15.3 °C 10.5 °C 1014.6 hPa WSW 16.3 km/h 19.3 km/h 73% 0.0 mm 0 W/m2
03:29 15.2 °C 10.4 °C 1014.6 hPa NNW 7.9 km/h 19.3 km/h 73% 0.0 mm 0 W/m2
03:34 15 °C 10 °C 1014.6 hPa WNW 13 km/h 16.1 km/h 72% 0.0 mm 0 W/m2
03:39 14.8 °C 10 °C 1014.6 hPa WSW 14.3 km/h 14.5 km/h 73% 0.0 mm 0 W/m2
03:44 14.6 °C 9.6 °C 1014.6 hPa WSW 11.1 km/h 19.3 km/h 72% 0.0 mm 0 W/m2
03:49 14.4 °C 9.4 °C 1014.9 hPa West 6.4 km/h 16.1 km/h 72% 0.0 mm 0 W/m2
03:54 14.2 °C 9.2 °C 1014.9 hPa West 6.4 km/h 22.5 km/h 72% 0.0 mm 0 W/m2
03:59 14 °C 9 °C 1014.9 hPa WSW 7.9 km/h 14.5 km/h 72% 0.0 mm 0 W/m2
04:04 13.8 °C 9 °C 1014.9 hPa NW 6.4 km/h 12.9 km/h 73% 0.0 mm 0 W/m2
04:09 13.6 °C 8.9 °C 1014.9 hPa West 11.1 km/h 12.9 km/h 73% 0.0 mm 0 W/m2
04:14 13.4 °C 8.9 °C 1015.2 hPa WNW 3.2 km/h 17.7 km/h 74% 0.0 mm 0 W/m2
04:19 13.3 °C 9 °C 1015.2 hPa West 1.4 km/h 6.4 km/h 75% 0.0 mm 0 W/m2
04:24 13.1 °C 8.8 °C 1015.2 hPa WSW 3.2 km/h 12.9 km/h 75% 0.0 mm 0 W/m2
04:30 12.9 °C 8.8 °C 1015.2 hPa West 6.4 km/h 9.7 km/h 76% 0.0 mm 0 W/m2
04:35 12.8 °C 8.7 °C 1015.2 hPa West 13 km/h 12.9 km/h 76% 0.0 mm 0 W/m2
04:40 12.7 °C 8.8 °C 1015.2 hPa SW 7.9 km/h 9.7 km/h 77% 0.0 mm 0 W/m2
04:45 12.6 °C 8.7 °C 1015.2 hPa West 13 km/h 17.7 km/h 77% 0.0 mm 0 W/m2
04:50 12.5 °C 8.6 °C 1015.2 hPa West 9.7 km/h 17.7 km/h 77% 0.0 mm 0 W/m2
04:55 12.5 °C 8.8 °C 1015.2 hPa WNW 6.4 km/h 14.5 km/h 78% 0.0 mm 0 W/m2
05:00 12.4 °C 8.7 °C 1015.2 hPa WSW 7.9 km/h 16.1 km/h 78% 0.0 mm 0 W/m2
05:05 12.4 °C 8.7 °C 1015.2 hPa West 4.7 km/h 12.9 km/h 78% 0.0 mm 0 W/m2
05:10 12.3 °C 8.6 °C 1015.2 hPa West 4.7 km/h 8 km/h 78% 0.0 mm 0 W/m2
05:15 12.2 °C 8.7 °C 1015.2 hPa WNW 6.4 km/h 11.3 km/h 79% 0.0 mm 0 W/m2
05:20 12.1 °C 8.6 °C 1015.6 hPa NW 6.4 km/h 6.4 km/h 79% 0.0 mm 0 W/m2
05:25 12 °C 8.7 °C 1015.2 hPa West 1.4 km/h 4.8 km/h 80% 0.0 mm 0 W/m2
05:30 11.9 °C 8.6 °C 1015.6 hPa SW 6.4 km/h 8 km/h 80% 0.0 mm 0 W/m2
05:35 11.9 °C 8.7 °C 1015.6 hPa WNW 4.7 km/h 12.9 km/h 81% 0.0 mm 0 W/m2
05:40 11.9 °C 8.7 °C 1015.6 hPa West 9.7 km/h 9.7 km/h 81% 0.0 mm 5 W/m2
05:45 11.9 °C 8.7 °C 1015.6 hPa WNW 3.2 km/h 8 km/h 81% 0.0 mm 5 W/m2
05:50 11.8 °C 8.6 °C 1015.6 hPa West 6.4 km/h 8 km/h 81% 0.0 mm 7 W/m2
05:55 11.7 °C 8.7 °C 1015.6 hPa WNW 6.4 km/h 11.3 km/h 82% 0.0 mm 9 W/m2
06:00 11.7 °C 8.7 °C 1015.6 hPa WNW 3.2 km/h 14.5 km/h 82% 0.0 mm 12 W/m2
06:05 11.7 °C 8.9 °C 1015.9 hPa WNW 1.4 km/h 11.3 km/h 83% 0.0 mm 14 W/m2
06:10 11.7 °C 8.9 °C 1015.6 hPa WNW 4.7 km/h 6.4 km/h 83% 0.0 mm 19 W/m2
06:15 11.8 °C 9 °C 1015.6 hPa NW 3.2 km/h 12.9 km/h 83% 0.0 mm 25 W/m2
06:20 11.8 °C 8.8 °C 1015.6 hPa WNW 11.1 km/h 11.3 km/h 82% 0.0 mm 21 W/m2
06:25 11.9 °C 8.9 °C 1015.6 hPa WNW 7.9 km/h 12.9 km/h 82% 0.0 mm 51 W/m2
06:30 12.1 °C 9.1 °C 1015.6 hPa NNW 4.7 km/h 6.4 km/h 82% 0.0 mm 47 W/m2
06:35 12.2 °C 9.2 °C 1015.9 hPa WNW 4.7 km/h 14.5 km/h 82% 0.0 mm 51 W/m2
06:40 12.3 °C 9.1 °C 1015.9 hPa West 3.2 km/h 6.4 km/h 81% 0.0 mm 37 W/m2
06:45 12.3 °C 9.1 °C 1015.9 hPa West 14.5 km/h 14.5 km/h 81% 0.0 mm 51 W/m2
06:50 12.4 °C 9.2 °C 1015.9 hPa West 9.7 km/h 9.7 km/h 81% 0.0 mm 60 W/m2
06:55 12.4 °C 9.2 °C 1015.9 hPa West 1.4 km/h 4.8 km/h 81% 0.0 mm 72 W/m2
07:00 12.4 °C 9.2 °C 1015.9 hPa SW 3.2 km/h 4.8 km/h 81% 0.0 mm 77 W/m2
07:05 12.4 °C 9.2 °C 1015.9 hPa West 1.4 km/h 8 km/h 81% 0.0 mm 69 W/m2
07:10 12.5 °C 9.3 °C 1015.9 hPa WNW 3.2 km/h 6.4 km/h 81% 0.0 mm 69 W/m2
07:15 12.6 °C 9.4 °C 1016.3 hPa West 9.7 km/h 12.9 km/h 81% 0.0 mm 77 W/m2
07:20 12.6 °C 9.4 °C 1016.3 hPa West 1.4 km/h 4.8 km/h 81% 0.0 mm 62 W/m2
07:25 12.7 °C 9.5 °C 1016.3 hPa SW 6.4 km/h 6.4 km/h 81% 0.0 mm 72 W/m2
07:30 12.8 °C 9.4 °C 1016.3 hPa West 4.7 km/h 9.7 km/h 80% 0.0 mm 51 W/m2
07:35 12.8 °C 9.4 °C 1016.3 hPa WSW 3.2 km/h 4.8 km/h 80% 0.0 mm 49 W/m2
07:40 12.9 °C 9.5 °C 1016.3 hPa NW 1.4 km/h 9.7 km/h 80% 0.0 mm 65 W/m2
07:45 13.1 °C 9.7 °C 1016.3 hPa West 3.2 km/h 6.4 km/h 80% 0.0 mm 74 W/m2
07:50 13.1 °C 9.5 °C 1016.3 hPa West 4.7 km/h 14.5 km/h 79% 0.0 mm 142 W/m2
07:55 13.2 °C 9.8 °C 1016.3 hPa West 1.4 km/h 8 km/h 80% 0.0 mm 86 W/m2
08:00 13.3 °C 9.9 °C 1016.3 hPa NNW 3.2 km/h 14.5 km/h 80% 0.0 mm 239 W/m2
08:05 13.5 °C 10.1 °C 1016.3 hPa WSW 4.7 km/h 12.9 km/h 80% 0.0 mm 373 W/m2
08:10 13.8 °C 10.2 °C 1016.3 hPa NNW 7.9 km/h 14.5 km/h 79% 0.0 mm 366 W/m2
08:15 14.1 °C 10.3 °C 1016.6 hPa WSW 6.4 km/h 8 km/h 78% 0.0 mm 362 W/m2
08:21 14.1 °C 10.1 °C 1016.6 hPa West 13 km/h 19.3 km/h 77% 0.0 mm 139 W/m2
08:26 14 °C 10 °C 1016.6 hPa West 13 km/h 14.5 km/h 77% 0.0 mm 153 W/m2
08:31 14 °C 10 °C 1016.6 hPa NNW 14.3 km/h 17.7 km/h 77% 0.0 mm 98 W/m2
08:36 14.1 °C 9.7 °C 1016.6 hPa WNW 11.1 km/h 16.1 km/h 75% 0.0 mm 118 W/m2
08:41 14.3 °C 9.9 °C 1016.6 hPa WSW 14.3 km/h 16.1 km/h 75% 0.0 mm 239 W/m2
08:46 14.3 °C 9.7 °C 1016.6 hPa NW 6.4 km/h 16.1 km/h 74% 0.0 mm 116 W/m2
08:51 14.2 °C 9.4 °C 1016.6 hPa West 11.1 km/h 17.7 km/h 73% 0.0 mm 76 W/m2
08:56 14.2 °C 9.4 °C 1016.9 hPa NW 4.7 km/h 6.4 km/h 73% 0.0 mm 172 W/m2
09:01 14.6 °C 10 °C 1016.6 hPa West 4.7 km/h 9.7 km/h 74% 0.0 mm 253 W/m2
09:06 14.8 °C 9.8 °C 1016.6 hPa SW 11.1 km/h 16.1 km/h 72% 0.0 mm 188 W/m2
09:11 14.4 °C 9.4 °C 1016.9 hPa WSW 9.7 km/h 16.1 km/h 72% 0.0 mm 128 W/m2
09:16 14.3 °C 9.3 °C 1016.9 hPa West 13 km/h 16.1 km/h 72% 0.0 mm 128 W/m2
09:21 14.1 °C 9.3 °C 1016.9 hPa WSW 11.1 km/h 20.9 km/h 73% 0.0 mm 146 W/m2
09:26 14 °C 9.4 °C 1016.9 hPa West 4.7 km/h 12.9 km/h 74% 0.0 mm 142 W/m2
09:31 14.3 °C 9.5 °C 1016.9 hPa West 11.1 km/h 20.9 km/h 73% 0.0 mm 179 W/m2
09:36 14.4 °C 9 °C 1016.9 hPa WNW 13 km/h 16.1 km/h 70% 0.0 mm 160 W/m2
09:41 14.5 °C 9.1 °C 1016.9 hPa NNW 6.4 km/h 11.3 km/h 70% 0.0 mm 443 W/m2
09:46 14.8 °C 9.2 °C 1016.9 hPa West 9.7 km/h 16.1 km/h 69% 0.0 mm 244 W/m2
09:51 15 °C 9.1 °C 1016.9 hPa WSW 16.3 km/h 17.7 km/h 68% 0.0 mm 338 W/m2
09:56 14.9 °C 8.8 °C 1016.9 hPa NNW 6.4 km/h 16.1 km/h 67% 0.0 mm 220 W/m2
10:01 15 °C 9.4 °C 1016.9 hPa NW 7.9 km/h 17.7 km/h 69% 0.0 mm 385 W/m2
10:06 15 °C 9.1 °C 1016.9 hPa WNW 11.1 km/h 22.5 km/h 68% 0.0 mm 308 W/m2
10:11 15.2 °C 9.3 °C 1016.9 hPa WNW 6.4 km/h 12.9 km/h 68% 0.0 mm 281 W/m2
10:16 15.2 °C 9.1 °C 1017.3 hPa West 13 km/h 14.5 km/h 67% 0.0 mm 262 W/m2
10:21 15.3 °C 9.4 °C 1016.9 hPa West 6.4 km/h 19.3 km/h 68% 0.0 mm 448 W/m2
10:26 15.3 °C 9.2 °C 1017.3 hPa West 11.1 km/h 16.1 km/h 67% 0.0 mm 265 W/m2
10:31 15.2 °C 9.5 °C 1017.3 hPa WNW 13 km/h 12.9 km/h 69% 0.0 mm 267 W/m2
10:36 15.2 °C 9.3 °C 1017.3 hPa West 9.7 km/h 16.1 km/h 68% 0.0 mm 554 W/m2
10:41 15.6 °C 9.7 °C 1017.3 hPa WSW 4.7 km/h 16.1 km/h 68% 0.0 mm 860 W/m2
10:46 15.7 °C 9.8 °C 1017.3 hPa West 6.4 km/h 16.1 km/h 68% 0.0 mm 343 W/m2
10:51 15.8 °C 9.2 °C 1017.6 hPa NNW 14.3 km/h 20.9 km/h 65% 0.0 mm 276 W/m2
10:56 15.9 °C 9.3 °C 1017.3 hPa NW 20.9 km/h 25.7 km/h 65% 0.0 mm 909 W/m2
11:01 15.9 °C 9.3 °C 1017.6 hPa NE 4.7 km/h 12.9 km/h 65% 0.0 mm 301 W/m2
11:06 15.7 °C 8.9 °C 1017.6 hPa West 6.4 km/h 25.7 km/h 64% 0.0 mm 211 W/m2
11:11 15.7 °C 9.1 °C 1017.6 hPa West 6.4 km/h 14.5 km/h 65% 0.0 mm 234 W/m2
11:16 16.1 °C 9.3 °C 1017.6 hPa West 11.1 km/h 27.4 km/h 64% 0.0 mm 1000 W/m2
11:21 16.1 °C 8.8 °C 1018.0 hPa WNW 14.3 km/h 17.7 km/h 62% 0.0 mm 218 W/m2
11:26 15.7 °C 8.9 °C 1017.6 hPa West 11.1 km/h 19.3 km/h 64% 0.0 mm 202 W/m2
11:31 15.4 °C 8.6 °C 1017.6 hPa West 6.4 km/h 14.5 km/h 64% 0.0 mm 211 W/m2
11:36 15.7 °C 8.7 °C 1017.6 hPa NNW 6.4 km/h 22.5 km/h 63% 0.0 mm 937 W/m2
11:41 16.1 °C 9.1 °C 1017.6 hPa WNW 13 km/h 16.1 km/h 63% 0.0 mm 867 W/m2
11:46 16.5 °C 9 °C 1017.6 hPa NW 7.9 km/h 22.5 km/h 61% 0.0 mm 886 W/m2
11:51 16.9 °C 9.3 °C 1017.3 hPa West 13 km/h 16.1 km/h 61% 0.0 mm 891 W/m2
11:56 17.3 °C 8.7 °C 1017.6 hPa West 9.7 km/h 19.3 km/h 57% 0.0 mm 865 W/m2
12:01 17.3 °C 8.7 °C 1017.6 hPa SW 9.7 km/h 17.7 km/h 57% 0.0 mm 853 W/m2
12:06 17.3 °C 7.9 °C 1017.6 hPa WNW 4.7 km/h 20.9 km/h 54% 0.0 mm 870 W/m2
12:11 17.7 °C 8.5 °C 1017.3 hPa WNW 6.4 km/h 14.5 km/h 55% 0.0 mm 937 W/m2
12:16 17.7 °C 8.3 °C 1017.6 hPa WSW 14.3 km/h 27.4 km/h 54% 0.0 mm 267 W/m2
12:21 17.3 °C 8.7 °C 1017.6 hPa NW 6.4 km/h 14.5 km/h 57% 0.0 mm 350 W/m2
12:26 17.6 °C 9 °C 1017.6 hPa WNW 4.7 km/h 17.7 km/h 57% 0.0 mm 566 W/m2
12:31 17.7 °C 8.8 °C 1017.6 hPa WNW 7.9 km/h 20.9 km/h 56% 0.0 mm 225 W/m2
12:36 17.7 °C 8.5 °C 1017.6 hPa NW 9.7 km/h 24.1 km/h 55% 0.0 mm 1055 W/m2
12:41 17.7 °C 9.3 °C 1017.6 hPa SW 9.7 km/h 16.1 km/h 58% 0.0 mm 1025 W/m2
12:46 17.8 °C 8.9 °C 1017.6 hPa WNW 22.7 km/h 25.7 km/h 56% 0.0 mm 1025 W/m2
12:51 17.7 °C 9.1 °C 1017.6 hPa WSW 13 km/h 14.5 km/h 57% 0.0 mm 946 W/m2
12:56 18 °C 9.6 °C 1017.6 hPa West 17.7 km/h 19.3 km/h 58% 0.0 mm 947 W/m2
13:01 18.3 °C 9.6 °C 1017.6 hPa West 16.3 km/h 16.1 km/h 57% 0.0 mm 977 W/m2
13:06 18.6 °C 9.1 °C 1017.6 hPa West 6.4 km/h 16.1 km/h 54% 0.0 mm 942 W/m2
13:11 19 °C 9.2 °C 1017.6 hPa WNW 11.1 km/h 14.5 km/h 53% 0.0 mm 1060 W/m2
13:16 18.9 °C 8.5 °C 1017.6 hPa NW 17.7 km/h 22.5 km/h 51% 0.0 mm 272 W/m2
13:21 18.8 °C 9 °C 1017.6 hPa NNW 14.3 km/h 16.1 km/h 53% 0.0 mm 436 W/m2
13:26 18.5 °C 8.5 °C 1017.6 hPa WSW 16.3 km/h 24.1 km/h 52% 0.0 mm 304 W/m2
13:31 18.5 °C 8.7 °C 1017.6 hPa West 14.3 km/h 19.3 km/h 53% 0.0 mm 461 W/m2
13:36 18.4 °C 8.6 °C 1017.6 hPa WNW 13 km/h 14.5 km/h 53% 0.0 mm 369 W/m2
13:41 18.9 °C 9.1 °C 1017.6 hPa WNW 7.9 km/h 19.3 km/h 53% 0.0 mm 1232 W/m2
13:46 18.9 °C 8.8 °C 1017.6 hPa WNW 19.5 km/h 22.5 km/h 52% 0.0 mm 1137 W/m2
13:51 18.8 °C 9.3 °C 1017.6 hPa West 4.7 km/h 11.3 km/h 54% 0.0 mm 1063 W/m2
13:56 18.9 °C 9.1 °C 1017.6 hPa West 6.4 km/h 12.9 km/h 53% 0.0 mm 977 W/m2
14:01 19.3 °C 8.6 °C 1017.6 hPa WNW 11.1 km/h 24.1 km/h 50% 0.0 mm 622 W/m2
14:06 19.4 °C 8.4 °C 1018.0 hPa West 13 km/h 20.9 km/h 49% 0.0 mm 1079 W/m2
14:11 19.6 °C 8.3 °C 1017.6 hPa NNW 6.4 km/h 14.5 km/h 48% 0.0 mm 1063 W/m2
14:16 19.7 °C 9 °C 1017.6 hPa WNW 7.9 km/h 20.9 km/h 50% 0.0 mm 953 W/m2
14:21 19.8 °C 9.1 °C 1017.6 hPa NW 4.7 km/h 19.3 km/h 50% 0.0 mm 1009 W/m2
14:26 19.7 °C 8.1 °C 1017.6 hPa WSW 6.4 km/h 16.1 km/h 47% 0.0 mm 1004 W/m2
14:31 19.7 °C 8.1 °C 1017.6 hPa WSW 11.1 km/h 16.1 km/h 47% 0.0 mm 1034 W/m2
14:37 19.9 °C 7.9 °C 1017.6 hPa West 13 km/h 12.9 km/h 46% 0.0 mm 1028 W/m2
14:42 20 °C 8 °C 1017.6 hPa NNW 4.7 km/h 22.5 km/h 46% 0.0 mm 283 W/m2
14:47 19.5 °C 8.5 °C 1017.6 hPa WNW 16.3 km/h 16.1 km/h 49% 0.0 mm 297 W/m2
14:52 19.1 °C 8.1 °C 1017.6 hPa WNW 4.7 km/h 16.1 km/h 49% 0.0 mm 295 W/m2
14:57 19 °C 8.3 °C 1018.0 hPa NW 7.9 km/h 19.3 km/h 50% 0.0 mm 223 W/m2
15:02 18.9 °C 8.5 °C 1018.0 hPa NNW 9.7 km/h 17.7 km/h 51% 0.0 mm 185 W/m2
15:07 18.7 °C 8.6 °C 1018.0 hPa West 4.7 km/h 16.1 km/h 52% 0.0 mm 181 W/m2
15:12 18.6 °C 8.6 °C 1018.0 hPa WNW 7.9 km/h 16.1 km/h 52% 0.0 mm 165 W/m2
15:17 18.4 °C 8.9 °C 1018.0 hPa West 9.7 km/h 20.9 km/h 54% 0.0 mm 179 W/m2
15:22 18.6 °C 9.1 °C 1018.0 hPa NNW 13 km/h 16.1 km/h 54% 0.0 mm 434 W/m2
15:27 18.8 °C 9.3 °C 1018.0 hPa West 14.3 km/h 16.1 km/h 54% 0.0 mm 346 W/m2
15:32 19.3 °C 9.5 °C 1018.0 hPa West 6.4 km/h 16.1 km/h 53% 0.0 mm 561 W/m2
15:37 19.3 °C 9.5 °C 1018.0 hPa West 9.7 km/h 16.1 km/h 53% 0.0 mm 399 W/m2
15:42 19.2 °C 9.4 °C 1018.3 hPa WNW 11.1 km/h 16.1 km/h 53% 0.0 mm 397 W/m2
15:47 19.3 °C 9.2 °C 1018.3 hPa WNW 16.3 km/h 29 km/h 52% 0.0 mm 519 W/m2
15:52 19.1 °C 9.6 °C 1018.3 hPa West 14.3 km/h 14.5 km/h 54% 0.0 mm 369 W/m2
15:57 19.2 °C 9.4 °C 1018.3 hPa WSW 22.7 km/h 22.5 km/h 53% 0.0 mm 345 W/m2
16:03 18.9 °C 9.4 °C 1018.3 hPa West 9.7 km/h 14.5 km/h 54% 0.0 mm 281 W/m2
16:08 18.8 °C 9.6 °C 1018.3 hPa SSW 7.9 km/h 14.5 km/h 55% 0.0 mm 424 W/m2
16:13 18.7 °C 9.5 °C 1018.3 hPa West 9.7 km/h 12.9 km/h 55% 0.0 mm 311 W/m2
16:18 18.9 °C 8.8 °C 1018.3 hPa West 3.2 km/h 17.7 km/h 52% 0.0 mm 830 W/m2
16:23 19.5 °C 9.4 °C 1018.3 hPa WNW 7.9 km/h 12.9 km/h 52% 0.0 mm 777 W/m2
16:28 19.8 °C 9.1 °C 1018.3 hPa NW 20.9 km/h 20.9 km/h 50% 0.0 mm 765 W/m2
16:33 20 °C 9.3 °C 1018.3 hPa WSW 13 km/h 16.1 km/h 50% 0.0 mm 758 W/m2
16:38 20 °C 9 °C 1018.3 hPa West 13 km/h 22.5 km/h 49% 0.0 mm 724 W/m2
16:43 19.8 °C 9.1 °C 1018.6 hPa West 14.3 km/h 16.1 km/h 50% 0.0 mm 158 W/m2
16:48 19.7 °C 8.7 °C 1018.6 hPa NNW 7.9 km/h 19.3 km/h 49% 0.0 mm 795 W/m2
16:53 19.8 °C 9.1 °C 1018.6 hPa NNW 13 km/h 17.7 km/h 50% 0.0 mm 258 W/m2
16:58 19.4 °C 8.7 °C 1018.6 hPa West 13 km/h 22.5 km/h 50% 0.0 mm 250 W/m2
17:03 19.2 °C 8.8 °C 1018.6 hPa WSW 19.5 km/h 25.7 km/h 51% 0.0 mm 339 W/m2
17:13 19.6 °C 9.8 °C 1018.6 hPa WSW 7.9 km/h 25.7 km/h 53% 0.0 mm 390 W/m2
17:18 19.8 °C 8.8 °C 1018.6 hPa West 13 km/h 27.4 km/h 49% 0.0 mm 679 W/m2
17:23 20.1 °C 8.7 °C 1018.6 hPa WNW 13 km/h 19.3 km/h 48% 0.0 mm 636 W/m2
17:28 20.1 °C 9.1 °C 1018.6 hPa WSW 14.3 km/h 17.7 km/h 49% 0.0 mm 628 W/m2
17:33 20.3 °C 8.6 °C 1018.6 hPa West 11.1 km/h 30.6 km/h 47% 0.0 mm 615 W/m2
17:38 20.2 °C 8.8 °C 1019.0 hPa NW 16.3 km/h 19.3 km/h 48% 0.0 mm 626 W/m2
17:43 20.1 °C 9.1 °C 1018.6 hPa West 13 km/h 25.7 km/h 49% 0.0 mm 617 W/m2
17:49 20.2 °C 8.8 °C 1018.6 hPa West 14.3 km/h 17.7 km/h 48% 0.0 mm 489 W/m2
17:54 19.9 °C 9.2 °C 1018.6 hPa West 13 km/h 22.5 km/h 50% 0.0 mm 229 W/m2
17:59 19.7 °C 9 °C 1018.6 hPa WNW 11.1 km/h 20.9 km/h 50% 0.0 mm 207 W/m2
18:04 19.4 °C 9 °C 1019.0 hPa West 4.7 km/h 22.5 km/h 51% 0.0 mm 144 W/m2
18:09 19.7 °C 9.3 °C 1019.0 hPa WNW 16.3 km/h 19.3 km/h 51% 0.0 mm 566 W/m2
18:14 19.8 °C 9.4 °C 1019.0 hPa West 13 km/h 17.7 km/h 51% 0.0 mm 571 W/m2
18:19 20.1 °C 9.6 °C 1019.0 hPa WSW 7.9 km/h 11.3 km/h 51% 0.0 mm 367 W/m2
18:24 20.3 °C 9.5 °C 1019.0 hPa WNW 7.9 km/h 19.3 km/h 50% 0.0 mm 506 W/m2
18:29 20.3 °C 9.2 °C 1019.0 hPa West 11.1 km/h 17.7 km/h 49% 0.0 mm 160 W/m2
18:34 20.2 °C 8.5 °C 1019.0 hPa West 11.1 km/h 16.1 km/h 47% 0.0 mm 420 W/m2
18:39 20.1 °C 8.4 °C 1019.0 hPa WNW 9.7 km/h 14.5 km/h 47% 0.0 mm 301 W/m2
18:44 19.8 °C 8.5 °C 1019.0 hPa NNW 6.4 km/h 19.3 km/h 48% 0.0 mm 155 W/m2
18:49 19.6 °C 8.6 °C 1019.0 hPa WNW 11.1 km/h 12.9 km/h 49% 0.0 mm 125 W/m2
18:54 19.3 °C 8.3 °C 1019.0 hPa WNW 4.7 km/h 11.3 km/h 49% 0.0 mm 141 W/m2
18:59 19.3 °C 8.6 °C 1019.0 hPa WNW 3.2 km/h 12.9 km/h 50% 0.0 mm 132 W/m2
19:04 19.2 °C 8.8 °C 1019.0 hPa West 1.4 km/h 6.4 km/h 51% 0.0 mm 127 W/m2
19:09 19.4 °C 8.7 °C 1019.0 hPa NNW 4.7 km/h 9.7 km/h 50% 0.0 mm 149 W/m2
19:14 19.4 °C 8.1 °C 1019.3 hPa West 13 km/h 19.3 km/h 48% 0.0 mm 125 W/m2
19:19 19.4 °C 8.4 °C 1019.3 hPa WNW 7.9 km/h 11.3 km/h 49% 0.0 mm 95 W/m2
19:24 19.5 °C 8.5 °C 1019.0 hPa WSW 7.9 km/h 19.3 km/h 49% 0.0 mm 343 W/m2
19:29 19.7 °C 8.4 °C 1019.3 hPa West 9.7 km/h 16.1 km/h 48% 0.0 mm 325 W/m2
19:34 19.4 °C 8.1 °C 1019.3 hPa West 6.4 km/h 12.9 km/h 48% 0.0 mm 49 W/m2
19:39 19.1 °C 8.1 °C 1019.3 hPa West 6.4 km/h 12.9 km/h 49% 0.0 mm 53 W/m2
19:44 18.9 °C 8.2 °C 1019.3 hPa NW 3.2 km/h 11.3 km/h 50% 0.0 mm 44 W/m2
19:49 18.7 °C 8.4 °C 1019.3 hPa West 6.4 km/h 9.7 km/h 51% 0.0 mm 56 W/m2
19:54 18.7 °C 8.6 °C 1019.3 hPa WNW 3.2 km/h 12.9 km/h 52% 0.0 mm 83 W/m2
20:00 18.7 °C 8.6 °C 1019.6 hPa West 9.7 km/h 9.7 km/h 52% 0.0 mm 79 W/m2
20:05 18.7 °C 8.9 °C 1019.6 hPa West 6.4 km/h 12.9 km/h 53% 0.0 mm 81 W/m2
20:10 18.7 °C 8.6 °C 1019.6 hPa WNW 6.4 km/h 11.3 km/h 52% 0.0 mm 77 W/m2
20:15 18.7 °C 8.9 °C 1019.6 hPa WNW 4.7 km/h 9.7 km/h 53% 0.0 mm 49 W/m2
20:20 18.6 °C 8.8 °C 1019.6 hPa WNW 4.7 km/h 6.4 km/h 53% 0.0 mm 46 W/m2
20:25 18.5 °C 9 °C 1019.6 hPa West 6.4 km/h 8 km/h 54% 0.0 mm 39 W/m2
20:30 18.3 °C 8.8 °C 1019.6 hPa WSW 6.4 km/h 9.7 km/h 54% 0.0 mm 54 W/m2
20:35 18.4 °C 8.9 °C 1019.6 hPa WNW 6.4 km/h 11.3 km/h 54% 0.0 mm 95 W/m2
20:40 18.6 °C 9.1 °C 1019.6 hPa WNW 9.7 km/h 9.7 km/h 54% 0.0 mm 86 W/m2
20:45 18.7 °C 9.2 °C 1019.6 hPa West 9.7 km/h 9.7 km/h 54% 0.0 mm 77 W/m2
20:50 18.6 °C 9.1 °C 1019.6 hPa WSW 3.2 km/h 9.7 km/h 54% 0.0 mm 76 W/m2
20:55 18.6 °C 9.1 °C 1019.6 hPa West 9.7 km/h 9.7 km/h 54% 0.0 mm 51 W/m2
21:00 18.3 °C 8.8 °C 1019.6 hPa WNW 4.7 km/h 11.3 km/h 54% 0.0 mm 35 W/m2
21:05 18.1 °C 8.9 °C 1019.6 hPa WSW 3.2 km/h 8 km/h 55% 0.0 mm 32 W/m2
21:10 17.9 °C 8.7 °C 1019.6 hPa SW 9.7 km/h 14.5 km/h 55% 0.0 mm 25 W/m2
21:15 17.8 °C 8.9 °C 1019.6 hPa WNW 4.7 km/h 6.4 km/h 56% 0.0 mm 19 W/m2
21:20 17.7 °C 9.1 °C 1020.0 hPa West 4.7 km/h 12.9 km/h 57% 0.0 mm 16 W/m2
21:25 17.6 °C 9 °C 1020.0 hPa West 6.4 km/h 9.7 km/h 57% 0.0 mm 12 W/m2
21:30 17.4 °C 8.8 °C 1020.0 hPa West 3.2 km/h 4.8 km/h 57% 0.0 mm 9 W/m2
21:35 17.3 °C 8.7 °C 1020.0 hPa West 3.2 km/h 6.4 km/h 57% 0.0 mm 7 W/m2
21:40 17.2 °C 8.9 °C 1020.0 hPa West 4.7 km/h 6.4 km/h 58% 0.0 mm 5 W/m2
21:46 17 °C 8.7 °C 1020.3 hPa WSW 3.2 km/h 4.8 km/h 58% 0.0 mm 0 W/m2
21:51 16.8 °C 8.7 °C 1020.3 hPa West 4.7 km/h 4.8 km/h 59% 0.0 mm 0 W/m2
21:56 16.7 °C 8.6 °C 1020.3 hPa West 1.4 km/h 9.7 km/h 59% 0.0 mm 0 W/m2
22:01 16.5 °C 8.7 °C 1020.3 hPa West 3.2 km/h 6.4 km/h 60% 0.0 mm 0 W/m2
22:06 16.3 °C 8.8 °C 1020.7 hPa WSW 1.4 km/h 9.7 km/h 61% 0.0 mm 0 W/m2
22:11 16.2 °C 8.9 °C 1020.7 hPa West 1.4 km/h 4.8 km/h 62% 0.0 mm 0 W/m2
22:16 16 °C 8.7 °C 1020.7 hPa WNW 3.2 km/h 6.4 km/h 62% 0.0 mm 0 W/m2
22:21 15.9 °C 8.9 °C 1020.7 hPa WSW 3.2 km/h 9.7 km/h 63% 0.0 mm 0 W/m2
22:26 15.8 °C 8.8 °C 1021.0 hPa WSW 4.7 km/h 6.4 km/h 63% 0.0 mm 0 W/m2
22:31 15.7 °C 8.7 °C 1021.0 hPa West 1.4 km/h 3.2 km/h 63% 0.0 mm 0 W/m2
22:36 15.7 °C 8.9 °C 1021.0 hPa West 4.7 km/h 4.8 km/h 64% 0.0 mm 0 W/m2
22:41 15.6 °C 8.8 °C 1021.0 hPa West 4.7 km/h 6.4 km/h 64% 0.0 mm 0 W/m2
22:46 15.5 °C 8.7 °C 1021.0 hPa West 1.4 km/h 4.8 km/h 64% 0.0 mm 0 W/m2
22:52 15.4 °C 8.6 °C 1021.0 hPa WSW 4.7 km/h 4.8 km/h 64% 0.0 mm 0 W/m2
22:57 15.3 °C 8.8 °C 1021.0 hPa Calm   3.2 km/h 65% 0.0 mm 0 W/m2
23:02 15.3 °C 8.8 °C 1021.0 hPa WSW 1.4 km/h 3.2 km/h 65% 0.0 mm 0 W/m2
23:07 15.2 °C 8.7 °C 1021.0 hPa West 4.7 km/h 4.8 km/h 65% 0.0 mm 0 W/m2
23:12 15.1 °C 8.6 °C 1021.0 hPa WSW 3.2 km/h 6.4 km/h 65% 0.0 mm 0 W/m2
23:17 15 °C 8.7 °C 1021.0 hPa WNW 3.2 km/h 4.8 km/h 66% 0.0 mm 0 W/m2
23:22 14.9 °C 8.6 °C 1021.0 hPa West 3.2 km/h 4.8 km/h 66% 0.0 mm 0 W/m2
23:27 14.9 °C 8.6 °C 1021.0 hPa West 3.2 km/h 6.4 km/h 66% 0.0 mm 0 W/m2
23:32 14.8 °C 8.5 °C 1021.0 hPa WSW 3.2 km/h 3.2 km/h 66% 0.0 mm 0 W/m2
23:37 14.7 °C 8.6 °C 1021.0 hPa WSW 1.4 km/h 3.2 km/h 67% 0.0 mm 0 W/m2
23:42 14.6 °C 8.5 °C 1021.3 hPa WSW 1.4 km/h 1.6 km/h 67% 0.0 mm 0 W/m2
23:47 14.3 °C 8.5 °C 1021.3 hPa Calm   3.2 km/h 68% 0.0 mm 0 W/m2
23:52 14.2 °C 8.4 °C 1021.3 hPa Calm   1.6 km/h 68% 0.0 mm 0 W/m2
23:57 14.1 °C 8.5 °C 1021.3 hPa Calm     69% 0.0 mm 0 W/m2
Juneau County Weather
Compliments of Weather Underground - 4 mb